When you browse on this site, cookies collect data to enhance your experience and personalize the content and advertising you see.
Visit our Privacy Policy to learn more. By continuing to use the site, you agree to this use of cookies and data.
  • In Sweden
  • List of Countries
  • For 7 days
  • Water Temperature
  • Weather Map
  • Weather Widgets
  • user-avatar
    Login

    Hourly Weather Serowe

    Today, 4 April, Saturday

    Time Temperature Precipitation Wind Pressure Humidity
    00:00 +17°C° 0 mm 4 mps 669 mmHg 76%
    01:00 +17°C° 0 mm 3 mps 668 mmHg 80%
    02:00 +16°C° 0 mm 3 mps 668 mmHg 82%
    03:00 +16°C° 0 mm 3 mps 668 mmHg 86%
    04:00 +15°C° 0 mm 2 mps 668 mmHg 90%
    05:00 +15°C° 0 mm 2 mps 668 mmHg 93%
    06:00 +16°C° 0 mm 3 mps 668 mmHg 90%
    07:00 +16°C° 0 mm 3 mps 668 mmHg 86%
    08:00 +17°C° 0 mm 4 mps 669 mmHg 82%
    09:00 +19°C° 0 mm 3 mps 669 mmHg 73%
    10:00 +21°C° 0 mm 3 mps 669 mmHg 63%
    11:00 +24°C° 0 mm 3 mps 670 mmHg 53%
    12:00 +26°C° 0 mm 2 mps 669 mmHg 48%
    13:00 +27°C° 0 mm 1 mps 669 mmHg 42%
    14:00 +29°C° 0 mm 1 mps 668 mmHg 36%
    15:00 +28°C° 0 mm 1 mps 668 mmHg 36%
    16:00 +28°C° 0 mm 1 mps 667 mmHg 37%
    17:00 +27°C° 0 mm 1 mps 667 mmHg 37%
    18:00 +26°C° 0 mm 1 mps 667 mmHg 40%
    19:00 +25°C° 0 mm 1 mps 667 mmHg 44%
    20:00 +24°C° 0 mm 1 mps 667 mmHg 47%
    21:00 +23°C° 0 mm 2 mps 667 mmHg 51%
    22:00 +21°C° 0 mm 2 mps 667 mmHg 55%
    23:00 +20°C° 0 mm 2 mps 667 mmHg 59%

    Tomorrow, 5 April, Sunday

    Time Temperature Precipitation Wind Pressure Humidity
    00:00 +19°C° 0 mm 2 mps 667 mmHg 63%
    01:00 +18°C° 0 mm 2 mps 666 mmHg 67%
    02:00 +18°C° 0 mm 2 mps 666 mmHg 71%
    03:00 +18°C° 0 mm 2 mps 666 mmHg 72%
    04:00 +18°C° 0 mm 1 mps 666 mmHg 73%
    05:00 +18°C° 0 mm 1 mps 666 mmHg 74%
    06:00 +19°C° 0 mm 1 mps 667 mmHg 69%
    07:00 +20°C° 0 mm 2 mps 667 mmHg 64%
    08:00 +21°C° 0 mm 2 mps 668 mmHg 59%
    09:00 +24°C° 0 mm 2 mps 668 mmHg 49%
    10:00 +27°C° 0 mm 1 mps 669 mmHg 40%
    11:00 +30°C° 0 mm 1 mps 669 mmHg 31%
    12:00 +30°C° 0 mm 1 mps 669 mmHg 29%
    13:00 +30°C° 0 mm 1 mps 668 mmHg 27%
    14:00 +31°C° 0 mm 1 mps 667 mmHg 25%
    15:00 +30°C° 0 mm 2 mps 667 mmHg 26%
    16:00 +30°C° 0 mm 3 mps 667 mmHg 27%
    17:00 +29°C° 0 mm 3 mps 666 mmHg 28%
    18:00 +28°C° 0 mm 3 mps 666 mmHg 33%
    19:00 +26°C° 0 mm 3 mps 666 mmHg 37%
    20:00 +24°C° 0 mm 3 mps 666 mmHg 42%
    21:00 +24°C° 0 mm 2 mps 666 mmHg 44%
    22:00 +23°C° 0 mm 2 mps 666 mmHg 45%
    23:00 +21°C° 0 mm 2 mps 666 mmHg 47%

    Day after tomorrow, 6 April, Monday

    Time Temperature Precipitation Wind Pressure Humidity
    00:00 +21°C° 0 mm 2 mps 665 mmHg 48%
    01:00 +20°C° 0 mm 2 mps 665 mmHg 49%
    02:00 +20°C° 0 mm 2 mps 665 mmHg 49%
    03:00 +20°C° 0 mm 2 mps 665 mmHg 51%
    04:00 +19°C° 0 mm 2 mps 665 mmHg 52%
    05:00 +18°C° 0 mm 2 mps 665 mmHg 54%
    06:00 +20°C° 0 mm 2 mps 665 mmHg 50%
    07:00 +21°C° 0 mm 3 mps 666 mmHg 46%
    08:00 +24°C° 0 mm 3 mps 666 mmHg 42%
    09:00 +26°C° 0 mm 3 mps 667 mmHg 35%
    10:00 +29°C° 0 mm 3 mps 667 mmHg 28%
    11:00 +33°C° 0 mm 3 mps 668 mmHg 21%
    12:00 +34°C° 0 mm 3 mps 667 mmHg 18%
    13:00 +35°C° 0 mm 3 mps 667 mmHg 16%
    14:00 +36°C° 0 mm 3 mps 666 mmHg 14%
    15:00 +36°C° 0 mm 3 mps 666 mmHg 14%
    16:00 +35°C° 0 mm 3 mps 665 mmHg 13%
    17:00 +35°C° 0 mm 3 mps 665 mmHg 13%
    18:00 +31°C° 0 mm 2 mps 665 mmHg 16%
    19:00 +29°C° 0 mm 2 mps 664 mmHg 20%
    20:00 +26°C° 0 mm 2 mps 664 mmHg 23%
    21:00 +25°C° 0 mm 2 mps 664 mmHg 25%
    22:00 +24°C° 0 mm 2 mps 664 mmHg 27%
    23:00 +24°C° 0 mm 2 mps 665 mmHg 29%

    7 April, Tuesday

    Time Temperature Precipitation Wind Pressure Humidity
    00:00 +23°C° 0 mm 2 mps 664 mmHg 30%
    01:00 +23°C° 0 mm 2 mps 664 mmHg 31%
    02:00 +21°C° 0 mm 2 mps 664 mmHg 32%
    03:00 +21°C° 0 mm 2 mps 664 mmHg 33%
    04:00 +21°C° 0 mm 2 mps 664 mmHg 34%
    05:00 +20°C° 0 mm 2 mps 664 mmHg 35%
    06:00 +23°C° 0 mm 2 mps 665 mmHg 33%
    07:00 +24°C° 0 mm 2 mps 665 mmHg 31%
    08:00 +26°C° 0 mm 1 mps 666 mmHg 29%
    09:00 +28°C° 0 mm 1 mps 667 mmHg 25%
    10:00 +31°C° 0 mm 1 mps 667 mmHg 21%
    11:00 +34°C° 0 mm 1 mps 668 mmHg 18%
    12:00 +35°C° 0 mm 1 mps 667 mmHg 16%
    13:00 +36°C° 0 mm 1 mps 667 mmHg 15%
    14:00 +37°C° 0 mm 1 mps 666 mmHg 13%
    15:00 +36°C° 0 mm 1 mps 666 mmHg 14%
    16:00 +35°C° 0 mm 1 mps 665 mmHg 14%
    17:00 +34°C° 0 mm 1 mps 665 mmHg 15%
    18:00 +32°C° 0 mm 1 mps 665 mmHg 17%
    19:00 +30°C° 0 mm 1 mps 665 mmHg 19%
    20:00 +28°C° 0 mm 1 mps 665 mmHg 21%
    21:00 +27°C° 0 mm 1 mps 665 mmHg 22%
    22:00 +27°C° 0 mm 2 mps 665 mmHg 23%
    23:00 +26°C° 0 mm 2 mps 666 mmHg 24%

    8 April, Wednesday

    Time Temperature Precipitation Wind Pressure Humidity
    00:00 +26°C° 0 mm 2 mps 666 mmHg 25%
    01:00 +26°C° 0 mm 3 mps 666 mmHg 26%
    02:00 +25°C° 0 mm 3 mps 667 mmHg 26%
    03:00 +22°C° 0 mm 5 mps 667 mmHg 45%
    04:00 +21°C° 0 mm 6 mps 667 mmHg 65%
    05:00 +18°C° 0 mm 8 mps 667 mmHg 84%
    06:00 +18°C° 0 mm 8 mps 667 mmHg 81%
    07:00 +20°C° 0 mm 8 mps 668 mmHg 78%
    08:00 +20°C° 0 mm 8 mps 669 mmHg 75%
    09:00 +21°C° 0 mm 8 mps 669 mmHg 70%
    10:00 +22°C° 0 mm 8 mps 669 mmHg 66%
    11:00 +23°C° 0 mm 7 mps 670 mmHg 61%
    12:00 +24°C° 0 mm 7 mps 669 mmHg 59%
    13:00 +24°C° 0 mm 7 mps 669 mmHg 57%
    14:00 +26°C° 0 mm 7 mps 669 mmHg 55%
    15:00 +26°C° 0 mm 7 mps 668 mmHg 56%
    16:00 +24°C° 0 mm 7 mps 668 mmHg 57%
    17:00 +24°C° 0 mm 7 mps 668 mmHg 58%
    18:00 +23°C° 0 mm 7 mps 669 mmHg 62%
    19:00 +21°C° 0 mm 7 mps 669 mmHg 67%
    20:00 +20°C° 0 mm 7 mps 670 mmHg 71%
    21:00 +20°C° 0 mm 7 mps 670 mmHg 73%
    22:00 +18°C° 0 mm 7 mps 670 mmHg 75%
    23:00 +17°C° 0 mm 7 mps 671 mmHg 78%

    9 April, Thursday

    Time Temperature Precipitation Wind Pressure Humidity
    00:00 +17°C° 0 mm 7 mps 671 mmHg 78%
    01:00 +17°C° 0 mm 7 mps 671 mmHg 78%
    02:00 +17°C° 0 mm 7 mps 671 mmHg 78%
    03:00 +17°C° 0 mm 6 mps 671 mmHg 79%
    04:00 +16°C° 0 mm 6 mps 671 mmHg 80%
    05:00 +16°C° 0 mm 6 mps 671 mmHg 81%
    06:00 +16°C° 0 mm 6 mps 671 mmHg 80%
    07:00 +17°C° 0 mm 6 mps 672 mmHg 78%
    08:00 +17°C° 0 mm 6 mps 672 mmHg 77%
    09:00 +18°C° 0 mm 7 mps 672 mmHg 71%
    10:00 +20°C° 0 mm 7 mps 673 mmHg 65%
    11:00 +21°C° 0 mm 7 mps 673 mmHg 60%
    12:00 +23°C° 0 mm 7 mps 672 mmHg 54%
    13:00 +24°C° 0 mm 7 mps 672 mmHg 49%
    14:00 +26°C° 0 mm 6 mps 671 mmHg 44%
    15:00 +26°C° 0 mm 6 mps 671 mmHg 43%
    16:00 +26°C° 0 mm 6 mps 671 mmHg 42%
    17:00 +26°C° 0 mm 6 mps 670 mmHg 41%
    18:00 +25°C° 0 mm 5 mps 670 mmHg 47%
    19:00 +22°C° 0 mm 5 mps 670 mmHg 53%
    20:00 +20°C° 0 mm 4 mps 670 mmHg 59%
    21:00 +20°C° 0 mm 4 mps 670 mmHg 62%
    22:00 +19°C° 0 mm 4 mps 670 mmHg 65%
    23:00 +18°C° 0 mm 4 mps 670 mmHg 68%
    Show more